Location: Arbon
(43.0005°N, 0.7472°E)
Time: 05:45:43
(UTC+00:00)

Vanguard 1 - Pass Details

Date: 29 November 2020
Orbit: 648 x 3834 km, 34.3° (Epoch: 21 January)

Event Time Altitude Azimuth Distance (km) Brightness Sun altitude
Rises 08:34:25 0° 268° (W) 4,306 13.0 11.9°
Reaches altitude 10° 08:36:54 10° 262° (W) 3,632 12.7 12.2°
Maximum altitude 08:46:15 48° 192° (SSW) 2,692 12.9 13.4°
Drops below altitude 10° 09:02:50 10° 126° (SE) 6,226 16.0 15.4°
Sets 09:08:43 0° 122° (ESE) 7,597 16.0 16.0°
